Location: Gro�sch�nbrunn
(49.5760°N, 11.8868°E)
Time: 17:25:30
(UTC+00:00)

Abrixas rocket - Pass Details

Date: 18 September 2020
Orbit: 327 x 334 km, 48.4° (Epoch: 31 October)

Event Time Altitude Azimuth Distance (km) Brightness Sun altitude
Rises 19:36:26 0° 270° (W) 2,090 6.7 -22.1°
Reaches altitude 10° 19:38:26 10° 267° (W) 1,253 5.4 -22.3°
Enters shadow 19:39:38 23° 263° (W) 769 4.1 -22.5°
